Weather in Arendal

Norway     58°27′41″N   8°45′48″E
temp.,
°C
wind,
m/s
gust,
m/s
humid.,
%
clouds,
%
prec.,
mm/h
press.,
hPa
HPBL,
m
12 august, fri
fri1223:00+17wsw310715 0.0 1021198
02:00+15wsw38685 0.0 1021135
05:00+14w24695 0.0 102168
08:00+18w23550 0.0 1021141
11:00+25wsw24310 0.0 1021790
14:00+28ssw45260 0.0 10191381
17:00+27ssw56320 0.0 1019809
20:00+22ssw49490 0.0 1019263
13 august, sat
sat1323:00+17wsw24680 0.0 101976
02:00+16wsw22733 0.0 101930
05:00+14w22785 0.0 101925
08:00+18w12638 0.0 1019137
11:00+25ssw234079 0.0 1018806
14:00+27s55355 0.0 10171051
17:00+26ssw67385 0.0 1017697
20:00+23sw49470 0.0 1016276
14 august, sun
sun1423:00+18wsw22625 0.0 101623
02:00+16wsw22635 0.0 101620
05:00+14w11645 0.0 101517
08:00+18w115313 0.0 1016104
11:00+25s243262 0.0 1015759
14:00+26s453632 0.0 1014837
17:00+25s45393 0.0 1014509
20:00+21sse225625 0.0 101337
15 august, mon
mon1523:00+17nnw11645 0.0 101312
02:00+17nne2260100 0.0 101221
05:00+16nne2474100 0.0 101273
08:00+18nne256186 0.0 1012170
11:00+22ene5754100 0.0 1011487
14:00+21ene4660100 0.0 1011459
17:00+24ene3547100 0.1 1009626
20:00+21ne476765 0.1 1008345
16 august, tue
tue1623:00+17ne4109774 0.4 1008388
02:00+17ne5109760 1.4 1007442
05:00+17ne51097100 0.4 1005587
08:00+18ene589898 2.4 1006378
11:00+18ene4796100 1.2 1006461
14:00+19e4693100 1.7 1006403
17:00+18ese3697100 1.5 1005418
20:00+19sw159359 1.6 1004465